| time (UTC) | temp C | wind direction | speed KPH | gust KPH | rain 1hr cm | rain 24hr cm | rain mn cm | humidity % | barometer mb |
| 20260510054745 | 10 | 81 | 3.2 | 17.7 | 0.00 | 0.00 | 0.00 | 83 | 1011.0 |
| 20260510054243 | 10 | 58 | 12.9 | 20.9 | 0.00 | 0.00 | 0.00 | 83 | 1011.0 |
| 20260510054006 | 11 | 347 | 4.8 | 20.9 | 0.00 | 0.00 | 0.00 | 84 | 1010.7 |
| 20260510053242 | 11 | 38 | 17.7 | 20.9 | 0.00 | 0.00 | 0.00 | 82 | 1010.7 |
| 20260510052742 | 11 | 94 | 6.4 | 17.7 | 0.00 | 0.00 | 0.00 | 81 | 1011.7 |
| 20260510052242 | 11 | 43 | 6.4 | 17.7 | 0.00 | 0.00 | 0.00 | 79 | 1011.7 |
| 20260510051736 | 11 | 32 | 8.0 | 17.7 | 0.00 | 0.00 | 0.00 | 79 | 1011.3 |
| 20260510051233 | 12 | 53 | 3.2 | 20.9 | 0.00 | 0.00 | 0.00 | 76 | 1011.3 |
| 20260510050732 | 12 | 49 | 9.7 | 22.5 | 0.00 | 0.00 | 0.00 | 75 | 1011.0 |
| 20260510050232 | 12 | 42 | 9.7 | 22.5 | 0.00 | 0.00 | 0.00 | 77 | 1010.7 |
| 20260510045731 | 12 | 22 | 9.7 | 27.4 | 0.00 | 0.00 | 0.00 | 78 | 1009.9 |
| 20260510045231 | 12 | 31 | 11.3 | 27.4 | 0.00 | 0.00 | 0.00 | 81 | 1009.5 |
| 20260510044731 | 13 | 354 | 8.0 | 20.9 | 0.00 | 0.00 | 0.00 | 81 | 1009.9 |
| 20260510044231 | 13 | 2 | 6.4 | 30.6 | 0.00 | 0.00 | 0.00 | 79 | 1009.5 |
| 20260510043730 | 15 | 301 | 8.0 | 19.3 | 0.00 | 0.00 | 0.00 | 78 | 1009.5 |
| 20260510043229 | 15 | 305 | 4.8 | 9.7 | 0.00 | 0.00 | 0.00 | 78 | 1009.2 |
| 20260510042728 | 15 | 195 | 1.6 | 3.2 | 0.00 | 0.00 | 0.00 | 78 | 1008.9 |
| 20260510042228 | 15 | 256 | 0.0 | 4.8 | 0.00 | 0.00 | 0.00 | 78 | 1008.5 |
| 20260510041726 | 15 | 24 | 0.0 | 8.0 | 0.00 | 0.00 | 0.00 | 79 | 1008.9 |
| 20260510041226 | 15 | 5 | 1.6 | 8.0 | 0.00 | 0.00 | 0.00 | 78 | 1008.5 |
| 20260510040724 | 15 | 341 | 4.8 | 9.7 | 0.00 | 0.00 | 0.00 | 77 | 1008.9 |
| 20260510040710 | 15 | 314 | 8.0 | 9.7 | 0.00 | 0.00 | 0.00 | 77 | 1008.5 |
| 20260510035723 | 15 | 300 | 8.0 | 9.7 | 0.00 | 0.00 | 0.00 | 78 | 1008.2 |
| 20260510035222 | 15 | 330 | 4.8 | 8.0 | 0.00 | 0.00 | 0.00 | 78 | 1008.2 |
| 20260510034721 | 15 | 292 | 6.4 | 8.0 | 0.00 | 0.00 | 0.00 | 78 | 1008.2 |
| 20260510034220 | 15 | 291 | 1.6 | 8.0 | 0.00 | 0.00 | 0.00 | 79 | 1008.2 |
| 20260510032718 | 15 | 180 | 3.2 | 12.9 | 0.00 | 0.00 | 0.00 | 79 | 1008.2 |
| 20260510032216 | 15 | 314 | 9.7 | 12.9 | 0.00 | 0.00 | 0.00 | 79 | 1008.2 |
| 20260510031701 | 15 | 315 | 6.4 | 9.7 | 0.00 | 0.00 | 0.00 | 79 | 1007.8 |
| 20260510030701 | 15 | 257 | 3.2 | 11.3 | 0.00 | 0.00 | 0.00 | 79 | 1007.8 |
| 20260510030201 | 15 | 333 | 4.8 | 11.3 | 0.00 | 0.00 | 0.00 | 78 | 1007.8 |
| 20260510030152 | 15 | 305 | 3.2 | 9.7 | 0.00 | 0.00 | 0.00 | 78 | 1008.2 |
| 20260510025201 | 15 | 244 | 6.4 | 9.7 | 0.00 | 0.00 | 0.00 | 78 | 1008.2 |
| 20260510024703 | 15 | 299 | 9.7 | 9.7 | 0.00 | 0.00 | 0.00 | 77 | 1008.2 |
| 20260510024201 | 15 | 309 | 8.0 | 9.7 | 0.00 | 0.00 | 0.00 | 77 | 1007.8 |
| 20260510023701 | 15 | 205 | 4.8 | 11.3 | 0.00 | 0.00 | 0.00 | 77 | 1007.8 |
| 20260510023201 | 15 | 324 | 6.4 | 11.3 | 0.00 | 0.00 | 0.00 | 76 | 1007.8 |
| 20260510022700 | 15 | 295 | 1.6 | 11.3 | 0.00 | 0.00 | 0.00 | 76 | 1007.8 |
| 20260510022201 | 15 | 335 | 4.8 | 14.5 | 0.00 | 0.00 | 0.00 | 75 | 1007.5 |
| 20260510021656 | 15 | 279 | 9.7 | 14.5 | 0.00 | 0.00 | 0.00 | 75 | 1007.8 |
| 20260510020204 | 15 | 303 | 6.4 | 14.5 | 0.00 | 0.00 | 0.00 | 79 | 1007.5 |
| 20260510015702 | 15 | 320 | 8.0 | 12.9 | 0.00 | 0.00 | 0.00 | 80 | 1007.8 |
| 20260510015200 | 15 | 329 | 6.4 | 12.9 | 0.00 | 0.00 | 0.00 | 80 | 1007.8 |
| 20260510014700 | 15 | 312 | 9.7 | 11.3 | 0.00 | 0.00 | 0.00 | 80 | 1007.8 |
| 20260510014200 | 15 | 301 | 4.8 | 14.5 | 0.00 | 0.00 | 0.00 | 80 | 1007.8 |
| 20260510013158 | 15 | 320 | 8.0 | 14.5 | 0.00 | 0.00 | 0.00 | 81 | 1007.5 |
| 20260510012657 | 15 | 296 | 6.4 | 12.9 | 0.00 | 0.00 | 0.00 | 82 | 1007.2 |
| 20260510012156 | 14 | 299 | 4.8 | 11.3 | 0.00 | 0.00 | 0.00 | 82 | 1007.5 |
| 20260510011655 | 15 | 327 | 6.4 | 16.1 | 0.00 | 0.00 | 0.00 | 82 | 1007.2 |
| 20260510010653 | 15 | 303 | 6.4 | 14.5 | 0.00 | 0.00 | 0.00 | 82 | 1007.2 |
| 20260510010153 | 15 | 311 | 4.8 | 14.5 | 0.00 | 0.00 | 0.00 | 82 | 1007.2 |
| 20260510005651 | 15 | 282 | 11.3 | 14.5 | 0.00 | 0.00 | 0.00 | 82 | 1007.2 |
| 20260510005150 | 15 | 296 | 9.7 | 14.5 | 0.00 | 0.00 | 0.00 | 83 | 1007.2 |
| 20260510004151 | 15 | 342 | 3.2 | 12.9 | 0.00 | 0.00 | 0.00 | 83 | 1007.2 |
| 20260510003648 | 15 | 282 | 6.4 | 16.1 | 0.00 | 0.00 | 0.00 | 84 | 1007.2 |
| 20260510003147 | 15 | 274 | 6.4 | 16.1 | 0.00 | 0.00 | 0.00 | 83 | 1007.2 |
| 20260510002646 | 15 | 290 | 11.3 | 19.3 | 0.00 | 0.00 | 0.00 | 83 | 1007.2 |
| 20260510002146 | 15 | 290 | 11.3 | 19.3 | 0.00 | 0.00 | 0.00 | 83 | 1006.8 |
| 20260510001644 | 15 | 293 | 4.8 | 14.5 | 0.00 | 0.00 | 0.00 | 85 | 1007.2 |
| 20260510001143 | 15 | 287 | 9.7 | 14.5 | 0.00 | 0.00 | 0.00 | 86 | 1007.2 |
| 20260510000643 | 14 | 288 | 8.0 | 17.7 | 0.00 | 0.00 | 0.00 | 87 | 1007.2 |
| 20260510000140 | 14 | 289 | 9.7 | 17.7 | 0.00 | 0.00 | 0.00 | 89 | 1007.2 |
| 20260509235630 | 14 | 249 | 6.4 | 12.9 | 0.00 | 0.00 | 0.00 | 91 | 1007.2 |
| 20260509235130 | 13 | 290 | 6.4 | 16.1 | 0.00 | 0.00 | 0.00 | 92 | 1006.8 |
| 20260509234629 | 13 | 277 | 12.9 | 16.1 | 0.00 | 0.00 | 0.00 | 93 | 1006.8 |
| 20260509234129 | 13 | 295 | 6.4 | 12.9 | 0.00 | 0.00 | 0.00 | 93 | 1007.2 |
| 20260509233628 | 13 | 231 | 4.8 | 12.9 | 0.00 | 0.00 | 0.00 | 94 | 1007.2 |
| 20260509233130 | 13 | 281 | 6.4 | 16.1 | 0.00 | 0.00 | 0.00 | 94 | 1006.5 |
| 20260509232632 | 13 | 284 | 4.8 | 16.1 | 0.00 | 0.00 | 0.00 | 94 | 1006.8 |
| 20260509232132 | 13 | 296 | 8.0 | 14.5 | 0.00 | 0.00 | 0.00 | 94 | 1006.8 |
| 20260509231631 | 13 | 305 | 8.0 | 12.9 | 0.00 | 0.00 | 0.00 | 94 | 1006.8 |
| 20260509231131 | 12 | 283 | 9.7 | 14.5 | 0.00 | 0.00 | 0.00 | 95 | 1007.2 |
| 20260509230633 | 12 | 281 | 4.8 | 16.1 | 0.00 | 0.00 | 0.00 | 95 | 1007.5 |
| 20260509230131 | 12 | 296 | 9.7 | 16.1 | 0.00 | 0.00 | 0.00 | 94 | 1007.2 |
| 20260509225129 | 12 | 298 | 8.0 | 29.0 | 0.00 | 0.00 | 0.00 | 94 | 1007.8 |
| 20260509224129 | 12 | 294 | 14.5 | 37.0 | 0.00 | 0.00 | 0.00 | 93 | 1007.5 |
| 20260509223127 | 13 | 333 | 22.5 | 54.7 | 0.00 | 0.00 | 0.00 | 86 | 1027.5 |
| 20260509222129 | 21 | 321 | 22.5 | 0.0 | 0.00 | 0.00 | 0.00 | 48 | 1029.6 |